TimeCST,TemperatureF,Dew PointF,Humidity,Sea Level PressureIn,VisibilityMPH,Wind Direction,Wind SpeedMPH,Gust SpeedMPH,PrecipitationIn,Events,Conditions,WindDirDegrees,DateUTC
12:53 AM,43.0,37.9,82,30.15,10.0,ENE,3.5,-,N/A,,Overcast,70,2013-01-08 06:53:00
1:53 AM,41.0,36.0,82,30.14,10.0,Calm,Calm,-,N/A,,Partly Cloudy,0,2013-01-08 07:53:00
2:53 AM,42.1,37.9,85,30.14,10.0,ENE,3.5,-,N/A,,Mostly Cloudy,60,2013-01-08 08:53:00
3:53 AM,42.1,37.9,85,30.12,10.0,East,5.8,-,0.01,,Scattered Clouds,90,2013-01-08 09:53:00
4:53 AM,44.1,39.0,82,30.12,10.0,Calm,Calm,-,0.00,Rain,Light Rain,0,2013-01-08 10:53:00
5:41 AM,42.8,39.2,87,30.09,10.0,ENE,6.9,-,0.01,Rain,Light Rain,70,2013-01-08 11:41:00
6:53 AM,44.1,41.0,89,30.12,10.0,ENE,3.5,-,0.00,,Overcast,60,2013-01-08 12:53:00
7:53 AM,48.9,41.0,74,30.12,10.0,ENE,4.6,-,N/A,,Overcast,60,2013-01-08 13:53:00
8:34 AM,57.2,42.8,59,30.13,10.0,East,5.8,-,N/A,,Overcast,80,2013-01-08 14:34:00
8:53 AM,62.1,42.1,48,30.13,10.0,ESE,6.9,-,N/A,,Overcast,110,2013-01-08 14:53:00
9:39 AM,59.0,42.8,55,30.13,10.0,East,8.1,-,N/A,,Overcast,90,2013-01-08 15:39:00
9:53 AM,59.0,43.0,55,30.13,10.0,East,8.1,-,N/A,,Overcast,80,2013-01-08 15:53:00
10:53 AM,60.1,44.1,55,30.11,6.0,East,6.9,-,0.00,Rain,Light Rain,90,2013-01-08 16:53:00
11:53 AM,64.0,46.0,52,30.09,5.0,ESE,3.5,-,0.08,Rain,Light Rain,120,2013-01-08 17:53:00
12:53 PM,63.0,46.9,56,30.05,4.0,ENE,6.9,-,0.10,Rain,Light Rain,70,2013-01-08 18:53:00
1:51 PM,62.6,48.2,59,30.00,5.0,East,9.2,-,0.00,,Haze,80,2013-01-08 19:51:00
1:53 PM,63.0,48.9,60,30.01,5.0,East,11.5,-,0.00,,Haze,80,2013-01-08 19:53:00
2:34 PM,64.4,48.2,56,29.99,1.0,East,11.5,-,N/A,,Haze,100,2013-01-08 20:34:00
2:53 PM,55.9,50.0,80,30.01,0.8,NE,4.6,-,0.00,Rain,Light Rain,40,2013-01-08 20:53:00
3:49 PM,59.0,50.0,72,30.03,1.5,NE,5.8,-,0.02,Rain,Light Rain,40,2013-01-08 21:49:00
3:53 PM,55.9,50.0,80,30.04,1.5,North,4.6,-,0.03,Rain,Light Rain,10,2013-01-08 21:53:00
4:00 PM,55.4,50.0,82,30.03,0.5,ENE,6.9,-,0.01,Rain,Rain,60,2013-01-08 22:00:00
4:34 PM,62.6,51.8,68,30.02,1.5,East,6.9,-,0.09,Rain,Rain,90,2013-01-08 22:34:00
4:53 PM,64.9,51.1,61,30.02,1.5,East,11.5,-,0.15,Rain,Heavy Rain,90,2013-01-08 22:53:00
5:32 PM,55.4,53.6,94,29.98,5.0,SE,18.4,26.5,0.10,,Overcast,130,2013-01-08 23:32:00
5:50 PM,57.2,55.4,94,29.96,9.0,ESE,20.7,-,0.11,,Mostly Cloudy,120,2013-01-08 23:50:00
5:53 PM,59.0,57.0,93,29.96,9.0,ESE,23.0,32.2,0.11,Rain,Light Rain,120,2013-01-08 23:53:00
6:42 PM,59.0,55.4,88,29.96,10.0,SE,24.2,29.9,0.02,Rain,Light Rain,130,2013-01-09 00:42:00
6:53 PM,64.9,55.9,73,29.96,10.0,SE,21.9,31.1,0.02,,Overcast,130,2013-01-09 00:53:00
7:53 PM,73.0,55.9,55,29.99,10.0,SE,10.4,-,0.00,Rain,Light Rain,130,2013-01-09 01:53:00
8:53 PM,75.0,55.9,51,30.03,10.0,SE,8.1,-,0.00,Rain,Light Rain,130,2013-01-09 02:53:00
9:53 PM,64.0,55.9,75,30.06,7.0,East,4.6,-,0.01,Rain,Light Rain,80,2013-01-09 03:53:00
10:14 PM,71.6,55.4,57,30.06,7.0,East,8.1,-,0.00,Rain,Light Rain,90,2013-01-09 04:14:00
11:53 PM,66.0,55.9,70,30.06,10.0,ENE,3.5,-,0.00,,Overcast,70,2013-01-09 05:53:00